Theta_e
295 294 294 296 305 304 304 305 305 305 305 304 302 303 300 299 297 291 297 298 300 301 305 310 311 312 312 313 315 316 316 317 317 317 318 318 320 321 322 323 324 325 326 327 329 329 330 332 333 335 336 338 340 341 341 343 346 345 347 346 345 344 343 343 344 347 346 348 349 349 350 349 348 348 348 348 348 348 349 349 350 351 350 351 351 352 353
297 300 300 301 305 304 305 305 304 305 306 305 304 304 303 302 300 297 300 299 302 304 308 311 313 314 314 315 316 316 315 315 317 317 318 318 320 321 322 323 324 325 326 328 328 329 330 331 333 335 336 338 339 340 340 341 344 346 345 345 345 344 343 344 345 347 348 347 349 349 349 348 347 348 347 348 347 345 345 346 347 348 350 352 352 352 352
297 301 306 305 305 303 303 305 305 304 304 305 305 305 305 306 302 304 303 302 302 306 310 312 313 314 314 314 314 315 314 315 317 317 318 319 319 320 322 323 324 325 326 328 328 329 330 331 333 335 337 339 340 340 340 341 342 346 347 345 345 344 343 344 344 345 347 348 348 348 348 349 349 348 347 347 347 346 345 345 345 347 351 350 352 352 352
294 298 303 305 304 304 302 302 303 303 302 301 302 303 305 303 302 302 302 299 298 302 308 313 312 312 312 312 313 315 315 316 317 316 318 318 319 320 321 323 324 325 326 327 328 329 330 331 332 335 338 340 340 340 341 341 343 346 347 346 344 343 344 344 344 344 345 347 347 348 348 348 349 348 347 347 346 346 345 345 345 347 348 349 351 351 351
290 295 302 302 296 295 294 296 301 304 304 304 306 306 309 310 305 302 299 297 300 305 312 310 310 311 312 313 314 315 316 316 316 317 318 319 319 320 321 323 325 325 326 327 329 330 330 331 332 336 340 340 339 341 341 342 344 344 344 345 344 343 344 345 346 346 346 346 345 347 347 348 348 348 347 346 345 345 344 345 347 347 347 350 348 348 349
291 295 297 297 292 286 287 296 304 307 305 303 303 302 305 307 308 302 302 305 305 308 309 309 309 310 311 313 315 317 316 316 317 318 319 320 320 321 322 323 324 325 327 328 330 331 331 333 335 339 342 341 341 343 343 343 342 342 343 344 345 345 346 346 347 347 347 345 345 346 348 348 348 348 347 345 346 346 346 347 347 347 349 346 345 345 346
293 293 294 293 286 286 296 304 309 310 309 307 306 305 305 307 309 309 308 308 308 309 309 310 311 312 314 316 316 318 319 318 318 318 320 320 320 320 322 323 325 326 327 328 329 330 331 334 338 339 339 341 342 342 343 342 342 342 343 343 343 344 345 346 347 347 347 345 345 347 348 348 348 348 347 346 346 347 348 348 346 344 344 345 346 347 348
293 291 288 284 285 293 302 306 311 314 311 309 305 302 305 307 309 308 306 307 308 309 310 312 313 313 314 316 317 318 318 319 319 320 320 320 320 321 322 324 325 326 328 328 329 330 335 336 337 338 338 341 341 341 342 341 341 341 342 343 344 344 343 345 347 347 346 345 346 347 348 348 348 348 348 346 346 347 345 343 344 345 345 345 344 344 345
291 289 286 290 294 299 302 304 306 310 304 304 301 296 297 306 309 308 307 307 308 310 311 312 313 313 314 311 312 315 316 317 319 320 320 321 321 323 324 326 327 329 330 330 331 334 335 336 337 337 338 339 340 340 340 341 342 341 340 340 342 345 345 345 346 346 345 344 345 347 348 347 347 348 347 347 346 345 342 343 342 342 343 343 343 344 343
291 289 287 288 287 288 292 300 307 313 311 310 306 305 301 305 308 310 309 308 309 309 310 311 311 311 310 307 309 315 317 319 319 320 321 322 323 324 325 328 329 330 331 332 333 335 336 336 337 338 338 339 339 338 339 340 341 341 340 339 341 343 344 345 346 345 344 344 344 346 347 347 346 345 345 347 346 345 342 342 342 342 343 342 343 343 343
293 291 287 285 288 290 295 301 308 312 313 311 306 299 295 300 309 311 310 309 310 310 310 311 311 309 304 305 309 315 317 318 320 320 321 322 323 324 326 328 328 330 330 332 335 337 336 334 336 338 339 338 337 337 338 339 340 340 340 341 341 341 343 343 344 344 344 344 344 345 346 348 349 346 347 346 344 344 343 343 343 343 343 341 341 341 342
293 288 288 287 290 293 304 304 307 311 314 308 300 290 288 301 308 309 310 310 310 311 311 310 309 307 304 306 311 317 318 319 320 321 321 321 322 324 327 329 330 331 334 334 333 333 334 335 337 338 338 336 336 337 338 339 338 339 341 342 343 343 343 344 344 344 344 345 345 346 346 348 349 348 346 342 342 342 343 344 343 343 342 341 339 339 341
296 296 289 291 294 302 307 307 309 313 311 304 293 288 293 303 306 309 310 311 312 312 311 311 307 310 313 315 317 318 319 319 320 321 322 322 324 325 327 329 338 333 333 333 332 333 335 336 337 337 337 335 335 336 337 336 336 339 341 343 344 343 342 343 344 344 345 345 346 347 347 347 348 348 345 343 342 342 342 343 342 342 341 340 340 339 340
292 291 292 291 292 297 306 310 313 313 306 294 292 298 301 305 308 309 311 312 313 313 313 312 311 314 316 318 318 317 318 318 319 320 320 322 323 326 333 336 337 334 332 332 334 335 336 336 337 337 336 334 334 335 335 335 337 339 340 341 343 343 341 341 343 344 343 344 346 347 345 346 346 346 345 344 343 342 342 341 340 339 339 338 337 335 335
292 289 289 287 286 299 311 311 308 309 299 298 299 303 308 310 311 312 312 313 314 313 312 314 314 314 315 315 316 316 317 317 318 319 320 320 321 323 325 327 333 334 332 332 334 335 336 336 336 336 335 334 334 335 334 336 338 339 340 342 344 343 342 341 342 343 344 343 342 345 345 346 344 343 344 342 341 342 341 341 339 337 336 335 333 332 332
290 289 287 287 294 299 311 310 303 305 307 305 305 308 309 310 312 312 312 313 314 315 314 314 314 314 314 314 315 316 317 318 318 319 320 320 322 323 325 328 330 335 334 334 334 335 335 335 335 336 335 334 335 335 336 339 340 341 342 344 344 343 343 343 342 341 343 344 343 343 345 345 344 343 342 340 339 340 340 340 337 335 334 334 332 331 330
294 291 293 297 299 304 311 310 305 306 310 311 310 311 310 309 310 313 312 313 315 315 314 314 313 313 314 314 316 316 317 318 318 318 319 320 321 322 323 325 331 333 333 333 333 332 333 334 335 335 336 334 335 335 337 339 341 342 343 344 343 341 342 343 342 341 341 341 343 343 344 344 342 342 340 339 338 339 339 338 336 334 333 333 331 331 331
302 302 302 306 308 308 309 313 312 310 312 314 313 313 312 312 313 313 313 314 314 315 315 313 313 313 314 315 316 317 317 317 318 320 320 320 321 323 324 326 329 333 333 332 331 331 332 334 335 337 336 336 334 336 339 341 342 343 343 343 342 341 340 340 340 341 341 341 343 343 343 342 341 342 341 340 338 339 339 337 336 334 332 332 331 331 330
300 295 305 308 309 310 311 312 313 314 314 314 315 314 314 315 315 315 316 315 316 316 315 314 313 314 315 315 316 317 317 316 317 318 318 319 320 321 322 325 331 330 331 329 329 331 331 333 334 335 335 336 338 339 340 342 343 342 343 343 343 342 341 339 339 340 340 341 340 341 341 342 341 341 341 340 339 339 337 336 334 334 333 332 331 331 331
298 299 302 304 308 309 310 310 311 313 314 313 315 317 316 316 316 317 317 317 315 315 315 315 314 315 316 315 315 316 316 317 317 318 319 320 320 322 324 326 330 329 329 328 329 330 331 332 333 334 335 336 337 339 340 342 343 342 341 341 342 342 342 343 340 340 340 342 340 338 340 341 338 339 339 340 339 337 336 335 334 333 332 331 331 331 331
299 302 305 306 308 310 309 310 312 312 312 314 314 314 314 313 314 314 314 316 316 315 316 316 315 314 315 316 316 316 316 317 318 319 320 320 321 322 324 326 329 327 328 329 329 330 331 333 333 333 335 336 337 338 339 342 344 342 341 341 342 342 342 341 339 340 341 340 338 333 325 319 316 319 331 339 337 335 337 338 337 335 332 332 333 334 333
298 301 302 306 304 302 305 309 311 312 313 313 314 313 313 313 312 312 312 313 314 316 317 316 315 314 315 316 316 316 317 318 318 319 320 321 321 323 326 328 328 328 330 329 329 330 332 333 333 333 334 336 337 337 338 342 344 341 341 340 340 339 339 337 336 335 333 332 331 330 328 325 323 320 313 305 311 334 336 332 327 326 324 333 334 334 332
296 302 304 308 308 304 304 308 311 313 315 315 314 313 312 312 313 312 312 313 314 315 316 317 316 316 316 317 317 317 318 319 320 321 321 321 323 325 327 327 327 328 329 331 331 332 332 333 333 333 334 336 337 337 338 342 342 340 340 340 339 337 337 335 334 332 331 330 330 328 327 327 326 323 322 318 302 304 321 324 313 308 310 313 319 324 330
305 307 306 308 309 310 313 313 313 315 315 314 314 313 313 313 313 315 315 315 314 315 316 317 318 318 317 318 318 318 320 321 322 323 325 326 327 328 329 328 328 329 330 331 331 331 332 333 333 334 335 336 336 337 339 341 341 340 340 340 338 336 336 336 335 331 330 330 328 326 326 328 328 328 326 322 317 303 302 306 306 305 305 306 308 310 313
311 311 310 310 311 311 313 314 315 316 318 320 314 313 314 315 317 318 318 319 318 317 316 316 318 320 319 321 321 321 321 322 324 326 329 331 330 329 329 330 329 330 330 331 332 332 333 333 335 336 336 336 337 337 337 339 341 340 340 340 338 336 335 337 335 333 330 329 328 327 327 327 328 329 326 322 318 315 310 302 301 300 300 301 303 304 305
312 312 314 314 314 314 313 313 314 314 314 316 316 317 320 325 324 324 321 319 318 317 317 318 319 321 322 322 322 323 323 324 327 330 328 326 327 328 328 328 330 331 332 333 333 333 333 335 336 337 335 335 336 336 336 338 340 340 341 340 339 337 336 335 332 331 330 330 329 328 329 330 330 329 327 324 321 321 320 319 316 308 303 300 299 299 299
315 314 312 312 311 311 310 312 311 313 314 314 315 315 317 317 321 321 318 318 319 320 321 321 321 322 322 323 324 325 324 326 326 325 324 325 327 327 328 329 330 331 333 333 333 334 337 336 335 334 334 335 335 336 336 337 338 340 340 339 337 340 340 337 332 331 331 331 330 329 330 330 329 329 327 326 327 328 327 323 320 318 314 313 305 301 305
312 312 311 309 306 307 312 313 312 313 314 315 315 315 317 317 317 317 318 319 319 320 320 321 321 321 322 322 322 322 323 323 322 323 323 324 325 328 329 329 330 331 332 332 332 334 336 335 334 334 334 335 336 336 336 337 337 338 339 338 337 338 339 337 332 332 331 330 331 330 330 331 330 329 329 329 329 329 326 325 321 315 312 311 309 304 300
313 314 314 311 310 310 312 313 314 314 314 315 316 315 316 316 317 317 317 318 318 318 319 321 322 323 321 322 322 322 323 324 323 323 323 324 326 328 328 328 329 331 332 332 333 333 334 334 334 333 334 337 337 336 337 337 337 338 338 337 337 337 337 333 332 332 331 331 330 331 331 331 329 329 330 330 329 327 325 322 320 315 310 310 310 311 311
313 313 313 313 313 314 314 313 311 310 312 313 314 315 316 315 315 316 317 317 318 318 319 320 321 322 323 322 323 323 323 323 323 323 323 324 326 327 327 327 327 329 331 331 332 333 333 333 333 333 335 337 338 337 337 337 338 339 339 338 337 337 335 333 332 331 331 330 330 330 330 330 330 330 330 328 327 325 321 318 316 313 312 313 314 311 309
312 312 311 311 311 312 313 313 310 310 311 313 313 314 316 316 315 315 316 317 318 319 321 321 322 323 324 324 325 325 326 325 324 323 323 325 326 326 326 326 324 324 326 327 329 332 332 333 333 334 336 337 338 337 336 337 337 338 339 338 337 333 330 330 331 331 330 330 330 329 329 329 328 329 328 326 324 321 318 317 317 315 315 314 313 312 311
311 310 309 308 309 312 310 308 309 311 312 313 314 315 316 316 316 316 317 319 320 322 322 323 323 323 324 325 325 326 326 325 324 324 325 325 325 325 325 325 326 327 326 327 330 331 331 332 332 334 336 337 338 337 336 336 337 337 338 338 335 333 330 329 330 330 330 330 330 329 328 326 326 327 327 325 322 320 319 317 315 314 314 314 313 313 313
310 309 309 310 312 310 309 308 309 313 313 314 315 316 317 319 319 320 321 322 322 323 323 323 323 323 323 324 325 325 326 325 324 324 323 323 323 324 325 326 326 326 326 328 330 330 329 329 330 332 334 336 337 337 336 336 337 337 338 338 334 333 333 330 329 329 330 329 328 325 324 325 326 324 323 323 321 320 318 317 317 317 316 315 313 314 315
309 308 310 309 312 311 310 312 310 311 314 316 316 317 318 321 322 322 322 323 323 322 322 322 322 323 323 324 325 325 325 323 321 321 322 322 323 324 325 325 325 325 326 328 329 327 327 327 328 330 333 334 335 336 337 337 336 336 337 337 334 332 332 330 329 330 329 327 326 325 324 324 322 322 322 321 319 318 318 318 318 317 316 315 314 315 310
310 309 310 311 311 312 313 314 314 315 317 317 319 320 322 322 322 322 324 323 321 321 322 322 322 322 323 324 324 324 323 321 321 321 322 322 322 323 323 323 323 323 324 325 326 324 326 326 328 330 333 332 333 335 336 337 337 336 336 337 335 333 332 331 330 330 328 325 323 321 321 320 321 322 321 319 318 319 318 318 318 317 316 315 315 314 312
315 315 315 314 315 317 318 318 319 320 320 320 321 321 320 320 320 320 320 320 321 321 321 321 321 321 321 322 322 322 321 321 321 322 322 322 322 322 321 320 320 320 321 321 324 324 325 326 330 332 331 330 331 332 334 335 336 335 335 336 335 334 333 331 331 330 326 323 322 321 320 321 321 321 320 319 319 318 317 317 317 317 316 315 315 314 313
314 314 314 315 316 317 317 317 318 319 320 319 319 319 318 319 319 320 321 321 320 320 319 320 320 320 320 321 322 322 322 321 321 321 321 321 321 320 318 318 318 318 319 318 320 323 324 325 328 329 328 327 327 328 331 334 335 334 334 334 334 333 332 331 329 326 324 323 322 321 322 320 319 320 321 319 318 318 318 318 319 318 317 316 315 315 315
315 315 316 317 317 316 317 318 319 319 318 317 316 317 318 317 318 319 319 319 320 319 319 320 320 321 321 322 320 319 319 320 320 320 320 319 319 318 317 316 316 317 317 317 320 322 323 325 326 325 324 325 325 326 330 334 337 333 332 332 334 334 332 329 326 324 322 322 322 320 319 319 318 318 318 319 319 319 318 317 317 317 317 316 315 315 316
317 317 319 318 317 316 317 317 317 317 316 314 314 314 317 319 319 319 319 319 320 322 321 321 321 320 319 318 317 318 318 318 319 319 318 317 318 317 316 316 317 318 319 321 321 321 323 324 323 322 322 323 324 325 329 334 335 331 331 331 332 333 331 328 324 323 322 321 320 319 319 319 318 317 317 317 318 319 319 318 318 319 317 316 314 314 314
314 316 317 317 315 315 315 314 314 313 314 315 316 316 318 319 319 319 319 318 319 320 319 319 318 317 317 316 316 315 316 317 317 317 317 317 316 316 316 316 317 319 321 321 321 321 323 323 322 320 321 323 324 324 326 328 328 327 327 327 328 328 328 326 323 322 321 321 320 321 318 318 318 318 318 318 318 318 318 318 317 317 316 315 314 314 314
315 315 316 316 315 314 313 313 312 313 315 316 317 318 318 318 318 317 316 317 317 318 318 319 317 316 316 316 315 315 316 316 316 315 316 315 314 314 313 312 316 319 320 320 321 321 321 322 322 320 320 322 323 324 323 324 323 323 323 324 325 325 324 323 322 321 320 319 318 317 317 317 317 317 317 317 317 317 317 316 316 315 315 314 314 314 314
315 315 314 314 313 313 312 313 314 314 315 316 317 318 318 318 317 316 316 317 316 316 316 317 319 317 316 316 315 315 314 314 315 315 315 314 313 313 312 313 317 319 321 320 319 319 319 320 321 321 320 320 321 323 323 322 321 321 321 321 320 320 319 318 318 317 318 317 317 317 318 317 316 316 316 316 316 316 316 315 315 315 315 315 315 315 314
315 314 313 313 312 312 312 313 314 314 315 316 316 316 316 316 315 315 315 315 315 315 315 315 316 316 315 313 312 312 312 313 313 313 314 314 316 316 315 315 317 320 321 319 318 317 318 319 320 321 322 321 320 321 320 319 319 319 319 319 319 317 317 317 316 316 316 316 316 316 316 316 316 315 315 315 315 315 315 315 314 315 315 314 314 315 314
315 314 313 313 312 313 313 314 314 315 314 314 315 314 313 312 311 312 312 313 314 314 313 313 313 313 313 312 311 311 311 311 311 313 312 313 314 315 318 319 319 320 321 319 318 318 318 318 319 320 322 321 321 320 319 318 318 318 318 318 317 317 317 317 317 316 316 316 315 315 316 316 315 315 315 315 315 315 315 315 315 315 314 314 315 315 315
314 314 313 313 313 313 311 312 313 313 313 314 313 313 311 309 310 310 311 312 313 313 314 313 312 312 312 312 312 312 312 312 312 312 311 311 311 312 317 322 320 321 321 320 317 318 318 318 319 320 320 320 320 320 318 317 317 317 316 316 316 315 315 314 314 315 315 314 314 315 315 315 315 315 315 315 315 314 315 315 315 314 314 313 312 312 313
314 315 315 316 312 311 311 312 312 312 313 312 311 312 311 309 309 310 310 310 310 310 310 311 312 312 312 313 313 313 312 312 312 313 314 313 313 314 319 323 320 323 322 321 318 317 318 322 321 320 319 318 318 316 316 316 316 315 315 315 315 315 314 314 314 314 314 314 314 314 314 315 316 315 316 315 315 314 314 316 314 314 313 313 313 313 313
315 314 314 313 314 314 313 312 312 310 310 310 309 308 310 310 309 308 308 308 308 308 309 310 311 311 311 311 311 310 310 311 312 313 313 314 316 317 320 323 323 322 321 320 321 320 320 319 321 321 320 318 316 313 313 313 313 314 314 314 315 315 315 315 315 315 316 316 316 317 317 316 315 315 315 315 314 313 313 312 311 312 313 314 315 317 316
315 313 312 313 313 313 312 310 308 307 308 308 308 309 309 308 308 308 308 307 307 307 307 308 309 310 311 312 311 312 313 312 309 310 313 314 315 316 317 319 321 321 318 319 321 323 322 322 322 321 319 317 314 312 313 312 312 312 312 313 313 313 314 314 314 314 315 315 315 315 314 313 312 312 311 311 311 311 312 312 312 313 313 314 314 314 314
314 313 313 313 311 310 309 310 310 310 308 310 310 310 312 311 310 310 309 307 306 306 306 306 306 307 309 314 314 311 314 316 312 310 314 315 315 315 316 318 321 321 318 315 315 317 323 322 321 320 319 317 312 312 313 313 313 314 313 313 313 313 313 312 313 313 313 313 313 313 313 312 312 311 311 311 311 312 312 312 312 312 312 313 313 313 313
314 314 312 311 310 310 310 310 308 307 309 310 308 310 310 309 308 309 311 310 309 310 305 306 306 307 308 309 310 312 313 314 316 316 315 315 315 316 317 317 319 320 319 316 315 315 320 322 321 321 317 313 313 313 313 313 313 313 313 314 314 313 314 312 313 313 312 313 312 312 312 312 313 314 315 311 311 311 312 313 315 316 316 315 313 313 313
315 314 313 314 312 312 310 309 309 309 309 310 308 313 312 309 310 312 310 309 307 308 306 306 306 307 309 309 311 311 313 314 316 319 316 315 315 317 320 318 317 319 317 315 313 312 314 317 316 317 316 316 315 315 314 313 313 313 314 313 313 313 312 312 312 312 312 312 312 312 313 312 313 313 313 313 313 313 313 313 312 312 312 312 312 311 311
316 314 313 313 312 312 310 310 311 310 309 311 309 310 309 310 309 310 311 313 307 306 306 306 306 307 311 309 313 311 313 316 315 315 316 316 315 313 315 317 316 315 314 314 311 312 313 316 320 321 319 313 313 314 317 317 314 314 315 317 316 315 316 315 314 313 313 313 313 313 312 313 313 313 313 313 313 312 312 312 311 311 311 310 310 309 308
Wind_Speed
1 3 2 1 2 1 1 1 0 3 4 4 4 0 2 2 0 5 2 2 2 3 3 2 3 3 3 5 5 5 6 7 6 6 7 8 8 8 9 9 9 9 10 11 11 11 11 12 14 14 11 9 7 6 7 6 5 3 1 2 3 5 5 4 9 8 9 9 10 11 11 9 7 8 8 8 7 6 7 7 5 5 7 8 8 8 7
3 4 1 3 7 2 2 0 0 0 1 2 3 2 2 3 2 2 2 4 7 5 2 2 4 3 2 4 4 5 5 7 6 6 7 8 8 9 9 9 9 9 10 10 11 11 11 12 13 13 12 11 9 9 8 7 5 4 3 3 5 6 7 8 8 7 8 10 10 9 9 9 8 9 9 9 7 7 8 8 8 8 7 6 7 8 8
1 3 4 3 2 4 3 1 1 2 2 3 1 2 1 2 1 0 1 1 5 3 2 2 3 3 3 3 4 5 5 6 7 7 8 9 9 10 9 9 10 10 10 10 10 10 11 11 12 11 11 10 10 9 7 7 6 4 3 4 5 6 6 8 8 7 7 9 11 11 11 10 10 11 11 10 9 9 9 9 9 9 8 7 7 7 8
1 1 2 2 4 4 3 1 2 1 2 1 1 0 1 1 2 1 2 5 4 2 2 4 4 3 3 5 7 8 8 8 7 7 8 9 10 10 10 10 10 10 10 10 10 11 11 10 10 10 10 10 10 10 7 6 7 5 4 5 6 5 6 7 9 10 9 7 8 11 12 11 10 11 10 9 10 10 10 10 8 7 9 9 6 4 3
2 2 0 3 2 1 3 5 4 3 2 1 1 2 2 3 2 0 2 6 3 4 1 4 6 6 7 6 5 7 8 8 7 8 8 9 10 10 10 10 11 10 10 10 10 11 10 10 10 11 10 10 10 9 9 8 6 6 6 5 6 7 8 8 9 9 9 11 11 11 11 8 8 9 10 10 10 10 10 9 7 8 7 6 6 3 3
1 1 0 0 1 1 4 2 1 3 1 2 2 2 3 2 4 3 4 4 3 3 3 3 5 6 7 5 6 6 6 7 9 9 8 9 10 10 10 9 10 10 9 9 10 11 11 11 10 10 9 9 10 9 10 9 8 7 8 8 8 8 8 9 10 9 9 9 10 12 10 9 8 9 9 11 11 9 7 7 7 5 5 8 9 6 6
1 1 2 1 1 6 2 3 2 2 3 2 3 5 4 3 2 1 2 3 4 6 4 4 5 6 7 6 8 10 9 6 7 9 9 10 10 11 10 11 11 10 10 10 11 12 11 10 9 8 9 8 9 10 9 10 8 7 7 9 10 11 11 11 10 10 12 13 13 10 10 10 9 9 10 9 8 6 3 4 6 7 8 9 9 8 6
2 1 2 1 3 3 4 6 3 1 1 0 1 5 5 6 6 6 3 6 5 4 5 5 5 4 7 7 7 8 9 6 7 7 9 10 10 11 10 11 12 11 11 11 12 13 11 10 10 9 9 9 9 11 11 10 11 9 7 7 6 6 7 7 8 9 9 8 8 8 9 8 8 9 9 8 7 5 8 11 8 7 7 7 9 9 7
2 1 3 5 4 4 1 2 2 4 2 2 2 3 4 6 5 6 3 3 4 4 4 5 5 5 5 4 8 6 7 8 7 7 9 10 11 10 11 10 11 10 10 11 12 10 10 10 9 9 9 9 9 10 11 11 10 10 9 8 7 7 8 8 9 9 10 9 8 8 7 7 7 7 6 6 6 8 11 11 11 10 9 10 10 9 9
4 4 1 3 3 2 5 6 4 0 1 3 4 2 5 2 4 4 3 3 5 5 5 5 3 2 5 7 6 7 8 6 7 8 8 9 9 9 9 9 10 10 10 10 9 8 10 11 10 8 8 8 9 10 11 10 10 10 9 9 9 8 7 8 8 8 9 9 8 8 7 8 7 4 5 5 8 9 10 11 11 10 10 10 10 11 12
3 2 2 3 2 6 3 3 2 1 2 6 3 4 6 4 5 6 5 5 5 5 5 6 2 4 4 7 7 9 8 7 7 8 11 10 10 9 9 10 11 11 11 10 10 9 9 11 10 9 9 8 8 8 9 10 9 10 10 8 8 8 8 7 7 7 8 8 7 7 8 8 8 7 7 8 9 9 8 8 9 10 11 10 9 7 6
2 5 2 4 4 1 1 5 2 2 3 3 3 3 4 2 4 6 5 6 6 6 5 2 0 3 6 7 8 6 6 7 10 8 10 11 11 10 10 10 10 10 9 8 9 9 10 10 10 10 9 7 8 8 8 8 9 9 8 7 7 7 8 7 8 7 7 8 8 8 9 9 7 7 8 9 8 8 8 7 10 10 10 8 9 7 7
2 4 2 2 5 3 3 3 2 2 3 3 2 5 4 3 5 5 5 6 7 5 5 3 4 6 8 8 9 9 10 10 11 10 9 10 9 10 11 11 10 8 9 7 8 9 9 8 8 8 7 7 7 8 8 8 9 9 8 7 6 7 7 7 8 8 7 7 8 9 8 7 7 9 9 9 9 9 9 8 9 9 9 7 8 8 8
3 4 2 5 5 6 5 0 7 5 2 0 5 5 2 4 5 5 6 7 7 5 7 6 7 8 8 8 8 9 10 9 10 10 11 11 10 9 9 11 9 8 8 9 9 8 6 7 8 7 6 7 7 7 7 8 9 8 8 8 7 6 6 7 7 6 3 4 8 5 4 7 7 9 8 8 8 8 7 8 9 10 9 9 8 7 6
2 2 1 3 2 1 4 8 3 0 2 6 5 1 2 5 4 4 5 7 8 4 6 7 8 8 9 8 9 9 9 9 10 11 11 12 11 11 12 12 9 8 8 9 8 8 7 8 7 8 8 9 8 7 7 8 8 8 8 7 6 5 6 7 8 6 3 4 3 5 7 8 7 8 8 8 6 7 8 9 9 10 9 9 9 9 7
3 2 2 3 5 4 7 8 5 5 8 3 5 4 1 2 5 4 4 5 7 6 7 8 7 7 7 8 8 7 8 8 9 10 11 11 9 10 11 10 10 8 8 6 6 7 7 7 6 7 6 9 8 7 7 6 7 7 5 5 6 5 5 5 5 6 5 5 7 5 6 7 7 6 7 8 8 6 6 8 8 9 9 8 8 9 9
4 4 6 5 3 4 7 6 4 5 6 3 5 5 4 2 4 4 2 5 6 5 6 6 6 7 7 7 8 7 9 9 10 11 12 11 10 11 12 12 10 8 8 7 6 7 7 7 5 5 6 8 9 9 6 6 6 6 6 6 5 4 4 2 3 2 3 2 3 5 5 5 4 5 6 9 9 8 9 8 8 8 8 8 9 10 8
2 2 5 2 2 2 5 6 4 3 1 1 3 4 3 4 5 4 4 5 6 6 3 3 5 5 6 7 9 8 9 9 10 10 11 11 9 10 10 10 9 9 9 7 5 7 8 6 6 5 6 7 9 9 7 5 5 5 6 6 3 3 1 1 3 4 1 2 5 7 9 8 8 4 6 7 8 8 8 8 9 9 9 9 9 10 8
1 2 0 2 4 2 3 4 4 3 3 3 3 2 4 5 4 4 6 7 8 7 4 5 7 8 7 7 9 8 8 9 10 10 11 12 10 10 11 10 8 10 8 8 8 8 9 8 6 6 7 6 7 8 7 5 5 4 5 5 2 2 2 4 3 2 3 2 6 8 8 6 6 5 4 6 7 8 9 9 9 9 10 10 10 10 11
3 2 2 5 3 4 4 3 3 3 3 2 3 4 4 4 4 3 6 4 6 4 6 7 6 7 7 7 8 8 8 8 9 10 11 12 11 10 8 9 7 8 8 8 8 9 8 8 7 7 6 7 7 7 7 6 5 4 2 4 4 3 2 2 4 3 4 7 6 4 4 5 8 5 4 5 6 7 8 9 10 10 9 10 9 11 12
5 4 5 5 3 4 5 3 4 5 3 1 3 2 3 3 3 5 5 4 6 4 7 5 4 6 8 8 8 8 8 9 9 9 10 11 10 10 10 9 7 8 8 8 8 8 8 7 7 7 6 6 7 8 8 7 5 3 3 3 3 2 2 3 4 5 5 5 6 6 7 7 5 3 4 7 9 6 1 4 9 11 10 9 9 9 13
2 5 4 5 1 4 5 4 4 4 4 3 3 3 3 3 3 4 4 8 5 5 6 5 5 7 8 8 7 8 8 9 10 10 10 10 10 10 8 7 8 8 8 8 9 8 7 5 6 8 8 5 5 5 6 6 4 3 3 1 2 0 2 3 3 3 4 5 7 8 8 8 7 6 10 11 7 5 8 3 3 1 6 10 11 12 9
4 6 7 6 4 3 4 4 4 4 2 2 2 3 3 4 3 3 3 5 7 7 7 3 4 6 7 9 7 7 8 9 9 9 9 10 9 9 8 9 10 10 10 10 9 9 7 6 7 8 8 7 5 5 6 6 3 2 2 2 1 2 3 3 5 4 4 5 5 6 7 8 8 8 6 8 15 12 7 8 9 11 11 13 16 14 14
3 4 5 7 4 3 1 2 4 3 4 4 3 4 4 4 5 4 4 5 6 7 6 7 4 5 6 7 6 8 9 9 9 10 9 8 8 7 6 6 8 10 11 11 11 11 9 7 8 7 7 7 6 6 4 6 3 3 3 3 2 2 3 4 5 5 4 6 7 6 6 7 9 9 8 9 9 14 14 14 14 12 12 13 14 13 15
1 2 5 7 5 2 1 1 1 1 1 1 2 3 3 4 5 4 5 6 5 6 6 7 7 3 4 6 6 7 8 9 10 10 10 8 8 8 7 7 8 9 9 9 9 8 8 8 8 7 7 7 6 6 5 5 5 4 4 4 3 3 3 5 5 6 6 6 6 7 8 7 7 8 8 10 11 10 12 17 18 17 14 11 14 14 14
1 2 3 3 1 0 1 2 1 0 1 1 1 2 3 4 5 5 6 5 6 5 4 5 6 6 4 5 6 7 8 9 10 11 8 7 8 9 8 9 9 8 9 8 8 8 8 8 6 5 7 7 7 6 5 5 5 5 5 4 4 4 4 5 6 6 6 6 6 6 7 8 7 7 7 8 10 10 10 11 11 13 15 14 12 15 14
1 3 5 2 1 1 2 1 2 1 2 2 2 4 5 5 6 5 6 5 6 5 4 5 5 5 5 5 5 6 7 9 9 8 7 7 7 8 9 8 9 9 9 9 8 8 10 7 6 6 6 7 6 6 6 6 5 5 5 4 4 5 7 6 4 5 6 6 6 6 6 6 8 8 8 9 10 10 11 11 9 10 6 5 9 9 10
2 1 2 3 3 3 1 2 3 3 3 4 3 4 6 5 5 5 6 7 7 5 5 4 4 5 6 6 5 7 7 8 9 9 9 8 7 8 8 9 10 10 9 8 8 7 7 6 6 6 7 7 7 5 6 6 6 5 4 4 4 4 3 5 5 4 4 5 5 6 6 7 8 8 8 7 9 8 9 8 10 9 7 5 5 7 11
2 2 0 1 2 2 1 0 1 2 4 4 3 4 4 5 5 5 6 6 5 5 5 6 4 4 5 6 5 6 6 7 9 11 9 8 7 7 8 8 8 9 8 9 8 7 7 8 8 7 7 7 8 6 5 7 6 4 3 4 3 3 2 5 5 4 4 4 5 5 5 5 7 8 7 7 9 7 8 8 9 8 7 7 7 7 7
1 0 1 2 2 2 1 1 3 4 4 4 5 5 4 4 5 5 5 6 5 5 5 5 5 5 5 6 5 6 7 8 9 8 8 7 6 6 7 8 9 7 7 8 9 9 7 6 7 7 7 8 8 7 6 6 6 6 5 4 4 4 3 4 4 4 4 4 5 7 6 6 6 7 8 8 8 6 7 8 10 10 9 7 8 8 8
1 2 3 3 3 1 1 1 2 4 4 5 3 5 6 3 4 5 6 5 4 5 5 5 5 6 7 6 6 7 7 7 7 7 7 6 5 5 7 8 9 10 9 9 10 8 7 7 6 7 7 7 8 6 5 5 6 7 5 3 4 5 8 8 6 5 4 4 4 6 8 7 5 5 7 8 9 9 8 8 8 8 8 8 7 8 8
4 3 4 2 1 0 2 2 2 3 4 4 4 5 4 4 6 7 6 6 6 6 6 5 5 6 6 6 6 6 7 6 6 6 6 6 6 6 6 6 7 9 8 8 8 7 7 6 7 7 8 8 8 7 5 4 6 6 6 3 5 5 7 10 6 6 4 4 4 5 7 8 7 7 6 9 10 10 10 10 11 10 10 9 8 7 8
3 1 1 1 1 2 3 3 3 4 4 4 5 4 4 4 4 5 5 5 6 5 5 5 5 6 6 6 6 6 6 6 6 5 5 7 7 7 6 6 7 7 7 7 6 7 7 7 8 8 9 8 8 7 6 5 5 5 5 3 4 6 7 7 7 7 6 6 5 7 6 6 8 8 8 7 8 9 9 9 10 10 10 8 8 8 9
5 3 3 4 4 3 3 4 2 4 4 4 4 4 4 4 4 4 5 5 5 5 5 6 7 7 6 6 6 6 6 6 6 7 7 8 8 7 7 7 7 7 7 7 6 6 7 7 7 8 8 9 8 7 6 6 5 5 3 2 5 5 6 6 7 7 7 7 7 8 7 7 7 7 8 9 9 10 10 10 10 9 9 9 8 8 9
4 3 3 2 2 2 2 3 3 3 4 5 4 3 3 3 3 4 5 5 5 5 5 5 6 6 6 5 5 5 6 6 7 7 7 7 7 7 7 7 7 7 7 6 6 7 7 7 8 8 9 8 8 7 6 7 6 5 4 3 4 5 6 6 6 7 7 7 7 7 7 7 7 6 7 9 10 9 10 10 10 11 11 10 8 7 7
4 3 2 2 2 2 2 2 2 3 3 3 3 3 3 4 4 4 5 5 5 5 5 5 7 7 6 6 6 6 6 5 5 5 5 6 6 7 7 7 7 8 8 7 6 8 8 8 13 15 9 6 6 7 6 6 6 5 3 1 4 4 5 6 6 7 8 8 8 7 7 7 6 6 7 5 6 8 9 9 9 10 10 9 11 9 7
2 3 3 3 2 3 3 3 3 2 2 2 3 4 4 5 5 5 5 5 5 5 5 6 7 7 7 5 4 4 5 5 5 5 5 5 6 6 7 7 8 8 8 7 8 9 8 8 14 16 9 5 6 7 7 11 6 3 1 2 4 6 6 6 7 7 7 7 8 9 10 9 8 7 5 4 5 6 8 8 7 6 7 10 8 8 8
2 4 4 4 4 4 4 3 3 3 3 3 3 4 5 5 5 6 6 6 6 6 6 6 6 6 5 4 4 5 6 6 6 6 6 6 6 5 6 7 8 7 8 9 9 8 8 11 15 10 7 6 6 7 9 14 6 0 2 1 3 5 6 7 8 8 9 9 10 10 10 9 9 9 8 7 6 7 10 12 12 10 7 6 7 7 7
5 4 5 4 4 4 4 3 4 4 4 5 5 5 5 6 7 6 6 6 6 6 6 6 5 4 5 5 6 7 7 7 6 6 6 6 5 5 5 6 6 7 6 7 7 7 8 10 8 7 7 7 7 7 9 9 4 3 1 2 1 4 7 8 8 8 9 10 10 10 10 9 9 9 9 8 7 8 9 11 13 10 7 7 6 6 7
4 5 5 5 5 4 4 3 4 4 4 4 5 6 6 6 6 6 6 5 6 7 6 6 6 6 7 7 7 7 7 7 7 7 7 6 5 5 5 7 8 7 8 10 8 7 11 15 10 7 7 7 7 6 6 8 8 6 5 5 4 6 7 8 9 9 9 9 10 11 10 11 10 10 10 11 9 9 8 7 8 8 6 6 6 6 6
5 5 5 6 5 4 3 3 4 4 4 5 5 5 6 6 5 5 5 5 5 6 7 6 6 7 7 7 7 6 6 7 8 8 6 6 8 8 7 8 9 8 9 9 8 8 10 9 9 8 7 8 7 8 7 9 7 6 6 7 7 9 10 10 9 9 9 10 10 10 10 11 11 11 10 9 7 7 8 8 8 8 8 8 7 6 6
5 6 6 6 5 4 4 4 4 5 5 4 5 5 6 6 5 5 5 5 6 6 6 7 10 8 6 6 6 8 8 8 7 6 7 7 7 6 7 8 8 8 13 11 10 9 8 8 8 8 8 8 8 14 13 9 8 8 9 9 10 11 12 12 12 11 10 10 10 10 9 9 9 9 8 8 9 8 8 8 8 9 8 5 4 5 5
6 7 6 6 5 4 4 4 4 4 4 4 5 5 6 6 6 6 6 6 7 6 7 7 7 9 8 7 8 8 8 7 7 7 7 6 5 5 6 6 7 8 14 9 8 7 7 7 8 9 13 12 11 16 14 9 9 9 9 10 11 13 13 13 13 12 12 12 11 10 11 11 10 10 10 9 8 7 7 7 7 7 6 6 5 4 5
5 6 6 6 5 4 4 4 4 3 3 4 5 5 6 6 5 6 6 6 7 7 7 6 7 8 8 8 8 8 7 7 7 6 6 7 8 8 7 7 6 8 11 7 7 7 8 8 8 12 17 18 19 16 11 10 10 10 10 10 10 11 11 11 11 12 12 12 11 11 10 10 10 10 10 9 7 6 6 5 4 5 5 4 4 4 4
6 6 6 6 6 5 4 3 3 3 3 4 5 5 5 6 5 5 5 5 7 6 6 6 6 7 6 6 6 6 5 4 5 6 7 7 7 8 9 7 7 6 8 9 6 7 7 9 13 18 16 18 18 16 11 11 11 11 11 11 11 11 11 11 11 10 11 11 10 10 10 10 10 10 9 8 5 4 5 6 6 6 6 6 6 5 5
6 6 6 6 5 4 3 4 4 4 4 4 5 5 5 5 5 5 5 5 6 5 5 5 6 6 6 6 6 5 5 5 6 4 2 0 2 5 6 6 6 6 10 10 6 7 7 14 17 16 16 16 15 11 10 10 10 11 11 11 11 12 11 11 11 11 10 10 9 9 8 7 7 7 7 6 4 4 4 4 4 4 4 4 4 4 4
7 6 5 5 5 5 4 4 3 4 5 5 5 4 4 4 4 4 4 5 5 5 6 6 6 5 5 5 5 6 6 6 7 7 7 6 5 6 7 8 8 10 8 7 7 6 7 8 12 15 15 16 13 9 9 9 9 9 9 9 10 10 9 9 9 8 8 9 9 8 7 6 5 6 6 5 5 4 4 4 4 3 2 3 4 4 4
6 6 5 5 6 5 4 4 5 5 5 5 3 2 2 2 3 3 4 5 5 5 5 5 4 5 4 5 3 2 3 4 6 8 7 6 6 6 6 6 8 11 10 8 9 10 14 13 13 13 14 12 9 8 8 8 8 8 8 8 8 8 7 7 7 7 7 7 7 6 6 6 5 5 5 5 4 4 4 5 5 4 4 4 4 3 4
6 6 5 5 5 5 4 4 4 5 4 2 3 2 2 2 3 3 4 4 5 5 4 4 5 4 4 4 3 4 4 3 4 3 5 6 7 7 6 7 12 11 7 6 7 6 11 14 13 13 13 10 7 7 7 7 8 7 7 7 6 6 6 6 6 6 6 6 6 6 5 5 5 5 5 4 4 4 5 5 4 4 5 4 5 4 4
6 6 5 5 5 5 5 4 4 4 3 2 3 1 1 3 4 3 3 4 3 3 4 4 4 4 4 4 5 5 5 5 5 4 5 7 7 7 7 7 8 11 10 7 6 7 9 13 12 12 9 7 7 7 7 7 7 7 7 7 7 6 6 8 7 8 7 6 6 5 5 5 5 5 5 5 5 5 5 5 5 6 8 5 4 4 3
6 5 5 4 4 4 4 4 5 5 4 3 2 0 1 3 2 1 1 3 3 4 4 4 4 4 4 4 4 4 5 4 4 4 5 6 7 8 9 7 8 7 7 7 6 7 7 6 6 7 7 7 7 6 6 6 6 7 6 6 6 5 6 7 6 6 6 5 5 6 5 5 6 6 5 5 5 5 4 5 5 4 4 4 4 4 4
5 5 4 4 4 4 4 4 3 3 3 2 2 2 2 2 3 4 3 4 4 3 3 4 4 4 4 5 5 5 5 5 5 5 5 6 6 6 7 8 6 7 7 6 6 6 6 6 7 8 8 6 6 6 7 8 7 6 6 6 5 6 5 5 6 6 6 6 6 5 5 4 4 5 5 4 4 5 5 5 4 4 4 4 4 4 4
Wind_Direction
239 229 235 248 106 98 147 137 345 34 350 39 88 84 184 134 183 206 265 147 194 259 231 263 278 270 281 287 295 297 287 284 293 304 315 321 324 322 322 317 314 313 313 310 309 312 314 316 318 320 323 324 322 316 309 303 304 267 189 85 85 94 103 188 216 196 152 179 207 208 212 210 192 198 204 206 200 186 174 183 193 223 220 210 208 210 203
0 358 122 177 124 115 43 336 295 277 142 125 130 134 181 184 219 208 221 191 231 242 237 261 276 279 265 280 289 294 307 313 313 312 318 322 323 322 317 314 309 305 304 305 307 310 313 318 319 319 320 322 324 323 312 300 294 276 162 172 161 153 159 183 213 215 166 172 205 208 212 213 202 204 208 199 186 196 198 194 180 191 232 237 212 202 188
2 347 44 41 68 118 126 298 291 249 204 148 168 142 215 167 79 267 215 206 275 265 215 266 279 303 312 310 309 309 306 319 320 318 316 319 318 315 312 309 308 304 303 304 307 308 310 317 316 314 309 310 314 309 295 285 281 272 192 189 195 188 172 174 193 208 198 185 192 204 210 212 204 209 212 204 195 198 199 200 200 190 190 210 230 207 189
310 324 60 58 74 68 82 332 308 329 41 63 313 88 192 129 255 312 350 335 281 278 305 302 281 299 333 324 323 325 327 324 313 306 304 307 309 309 307 305 304 305 307 310 309 305 306 306 307 306 304 307 309 303 295 279 273 268 226 212 217 205 193 187 184 192 204 198 207 214 215 211 206 209 207 203 201 201 199 197 198 181 198 203 211 234 208
269 283 169 129 65 36 329 278 238 209 245 212 271 272 268 225 162 143 235 237 220 236 312 342 319 339 326 321 309 309 310 309 297 286 290 296 299 301 301 302 301 300 302 302 298 295 296 296 296 294 295 302 304 302 300 289 265 257 248 219 196 200 207 206 201 197 188 193 213 230 228 214 200 206 206 209 211 206 203 193 176 192 192 153 128 98 18
236 286 6 32 48 342 245 236 202 156 211 209 221 268 231 222 157 201 184 217 248 287 295 276 288 306 297 290 287 273 262 284 291 283 282 289 293 295 296 293 291 291 297 296 291 286 281 279 277 281 291 296 298 296 293 288 271 254 235 218 204 203 201 200 199 192 191 195 212 226 227 217 197 196 203 215 220 211 190 170 184 181 129 112 107 117 168
241 76 59 69 237 235 243 282 253 212 237 205 215 254 244 234 252 258 280 276 267 246 236 242 257 266 281 294 290 297 291 259 251 265 281 290 294 296 298 299 297 296 296 294 291 290 286 288 291 302 307 310 307 301 293 290 281 262 234 215 205 203 206 210 205 198 196 200 212 214 213 217 209 206 206 210 214 215 163 120 86 72 93 118 134 150 170
64 60 66 110 243 240 280 283 272 206 133 98 29 303 269 223 212 187 216 241 250 268 280 276 259 270 293 299 280 265 274 256 249 270 281 288 292 294 292 293 292 296 298 294 289 287 295 306 307 307 305 308 306 303 302 294 292 287 274 254 236 212 217 218 216 209 211 217 217 215 215 214 214 217 214 205 197 140 99 89 95 101 81 97 123 159 163
194 195 160 230 300 330 307 314 259 161 213 184 169 241 282 220 198 171 208 262 277 286 269 267 298 311 312 327 304 275 258 277 269 254 271 278 281 282 284 280 282 286 287 285 286 295 300 300 299 299 301 305 304 301 298 295 292 289 287 280 259 218 210 204 207 205 203 209 214 215 208 201 209 206 195 186 143 121 117 128 135 141 150 150 158 160 160
122 135 354 348 17 296 275 238 271 275 175 134 154 101 290 282 228 199 181 233 261 272 284 292 307 340 356 320 297 291 293 278 281 288 280 281 277 276 276 280 280 286 287 290 293 294 299 302 300 298 299 305 307 306 302 296 295 286 274 271 279 277 241 207 203 202 206 209 212 207 200 201 196 177 172 159 136 139 145 153 156 150 145 154 167 170 173
93 70 151 211 198 246 211 236 238 218 174 129 131 54 292 269 203 207 184 236 253 243 258 283 37 16 328 275 271 281 284 294 297 301 297 290 286 283 280 277 285 291 293 294 297 301 302 304 310 309 304 304 301 301 299 296 296 291 283 283 290 289 285 260 217 200 205 208 210 209 207 203 190 166 164 148 145 155 161 155 138 141 155 164 169 168 158
172 133 138 246 202 227 223 218 253 227 145 103 62 352 284 256 217 209 183 222 246 255 243 211 211 226 265 275 276 274 291 301 296 286 286 291 293 292 288 281 269 274 288 302 304 304 305 306 307 307 303 295 293 299 300 299 298 297 294 286 289 292 286 265 243 212 202 204 202 202 206 200 182 158 146 143 155 152 160 150 151 160 162 156 154 157 155
163 160 243 314 300 266 251 220 218 152 143 79 81 231 237 241 216 217 186 223 237 234 255 188 239 225 216 249 275 301 302 305 300 295 287 279 278 284 286 281 283 290 294 289 286 291 296 299 301 296 290 285 293 301 301 299 297 295 300 299 281 265 264 258 248 232 203 202 208 206 203 188 166 155 156 157 155 154 153 150 149 153 153 147 142 149 155
168 186 176 229 241 238 181 5 153 178 119 244 209 235 204 158 219 232 203 228 246 226 234 229 223 251 261 271 282 285 286 280 279 281 282 287 293 286 277 277 283 286 288 294 295 296 296 297 300 293 284 289 295 303 301 298 296 297 295 287 276 253 248 246 252 252 223 207 223 192 148 158 165 162 159 153 154 155 145 140 144 146 143 140 137 133 128
63 53 65 13 333 268 133 124 78 128 145 230 206 217 256 202 218 210 231 214 253 205 253 244 243 259 277 277 280 284 284 286 284 286 289 290 293 296 297 298 285 282 291 297 301 307 314 311 304 299 295 297 307 312 309 297 293 288 281 279 263 239 229 238 244 245 207 183 173 159 166 169 155 156 150 137 125 141 144 142 141 140 137 132 132 130 124
154 126 142 198 211 195 191 150 180 213 211 188 174 146 240 239 205 225 229 238 229 226 221 258 274 264 271 290 281 286 285 281 281 283 283 284 289 290 287 280 283 288 289 293 302 311 310 300 293 298 300 306 315 317 301 294 283 283 273 271 264 241 235 233 227 223 224 191 162 171 170 159 155 143 126 112 131 145 134 140 140 139 139 139 138 135 133
138 195 212 249 232 205 207 196 194 205 227 184 175 174 190 206 256 196 196 255 258 227 225 249 253 281 271 261 272 276 275 280 281 282 282 287 290 288 287 292 296 301 300 308 321 310 303 298 298 308 316 315 314 311 303 303 298 303 299 288 259 258 266 275 49 108 157 183 174 163 157 139 118 136 123 130 143 147 153 151 142 141 142 150 140 138 133
252 251 202 255 302 244 248 245 222 229 315 176 163 187 236 245 233 187 215 253 264 279 230 236 273 237 260 281 287 281 277 278 280 281 286 290 291 291 295 300 307 310 313 319 316 313 312 311 317 324 321 311 309 304 298 310 320 315 315 301 273 258 250 62 229 235 57 126 162 157 160 149 154 189 153 138 131 148 152 146 145 146 146 148 138 138 134
82 265 267 214 222 238 236 241 292 271 233 235 182 201 217 253 259 254 243 243 261 258 261 233 246 270 275 273 273 275 280 281 280 283 287 290 291 292 297 299 313 315 318 321 322 323 319 322 326 321 312 308 301 300 302 309 315 317 321 315 280 286 117 188 252 265 216 148 166 169 149 126 135 162 157 142 143 147 148 150 149 153 151 149 142 140 140
150 228 250 245 275 264 260 242 272 279 262 254 224 212 225 239 265 256 270 270 264 251 257 243 238 260 270 269 273 278 280 280 284 285 287 289 295 295 294 298 304 302 307 312 316 320 317 317 320 314 307 313 312 308 307 303 297 296 320 323 313 259 211 154 149 194 216 192 157 126 132 120 136 159 159 152 140 146 161 157 156 158 157 155 149 146 144
273 300 281 271 313 307 289 266 226 234 225 258 303 278 273 274 280 283 284 234 241 221 240 256 258 272 274 265 265 274 278 283 283 283 285 288 290 296 304 304 307 299 305 312 312 312 308 310 310 311 310 319 321 314 310 312 310 313 323 333 335 350 134 126 133 160 171 140 130 126 93 70 52 57 144 152 145 129 237 193 174 167 157 154 151 148 146
285 210 242 142 131 270 279 260 229 231 239 194 242 300 309 279 273 285 303 306 288 241 252 264 264 258 272 278 276 276 276 277 281 287 290 293 298 300 299 302 304 306 311 310 307 305 301 309 314 314 310 310 319 318 311 311 307 285 300 323 330 146 128 125 130 154 132 133 127 128 122 113 107 69 42 46 35 133 148 93 67 274 175 156 150 144 127
232 246 231 209 175 196 226 207 221 226 261 191 228 257 268 282 269 253 269 294 309 308 291 246 233 258 261 274 284 285 284 283 283 283 286 294 300 305 316 320 319 320 315 313 309 314 321 322 318 312 305 310 324 338 327 315 288 257 225 262 258 145 143 142 150 143 132 120 120 117 128 131 126 116 88 44 39 40 90 139 139 131 122 127 135 143 135
246 226 218 176 158 196 230 234 225 230 220 184 225 260 252 249 262 277 265 242 253 274 274 286 267 260 276 279 284 281 289 288 289 293 295 297 296 302 312 309 308 312 313 317 320 324 324 320 312 303 303 315 326 341 332 319 279 218 223 226 230 185 156 143 140 139 138 140 135 131 137 145 138 136 124 111 67 31 50 73 59 62 90 102 104 102 116
253 207 176 187 191 216 260 268 253 253 290 191 217 246 249 272 281 258 264 283 269 261 281 290 299 284 263 289 289 283 281 286 288 290 300 312 318 323 322 319 316 315 310 307 312 317 316 311 306 306 318 323 329 343 340 324 288 239 218 218 196 160 156 149 143 146 145 148 146 144 146 142 133 134 129 121 107 92 46 55 67 67 52 64 93 103 104
219 136 113 129 146 46 325 99 21 278 277 238 264 279 285 284 285 298 291 281 281 274 259 274 292 298 286 291 297 292 292 290 297 307 316 326 324 326 332 327 316 311 308 307 313 317 309 308 314 320 323 319 328 336 339 325 305 257 231 225 208 166 161 155 144 153 161 157 157 156 154 151 134 115 119 126 129 124 116 114 78 59 53 47 59 84 81
103 149 112 56 4 303 343 205 228 245 281 276 236 261 279 287 297 291 283 276 266 271 276 284 281 286 291 283 287 287 289 301 309 310 312 320 323 319 317 316 313 309 308 314 316 318 325 334 331 327 318 316 316 330 334 328 321 279 234 209 222 216 191 158 151 167 166 158 151 153 156 139 132 142 132 139 139 140 142 127 116 118 117 62 31 44 108
128 158 140 171 221 207 231 249 235 272 289 278 287 291 291 308 310 316 318 319 320 323 316 304 314 319 312 304 309 306 312 312 309 307 312 317 315 313 317 319 319 317 315 315 314 312 317 324 330 330 320 313 315 324 334 330 322 308 251 200 208 213 189 151 142 163 169 160 154 154 155 144 137 122 127 145 134 127 125 112 115 118 109 79 88 57 76
131 85 57 141 175 194 192 6 351 305 299 303 297 282 298 319 309 310 300 296 295 306 313 317 321 307 286 296 303 300 301 304 305 307 308 309 311 316 319 318 316 313 309 314 311 312 321 327 330 330 325 321 317 321 334 334 324 309 263 213 203 201 154 136 148 160 171 162 161 151 128 109 114 125 143 147 131 129 127 127 123 119 111 122 113 95 80
188 21 93 77 77 109 107 277 260 274 274 283 317 305 306 301 300 295 295 298 308 309 300 304 311 312 312 306 309 303 300 301 302 297 298 304 312 320 325 324 322 315 315 321 322 319 321 323 323 324 323 324 319 323 332 334 325 312 277 214 196 175 147 133 143 149 156 166 159 131 105 97 122 144 143 140 135 119 121 121 126 127 127 129 122 127 124
119 85 101 101 89 73 160 257 290 276 275 290 285 290 298 294 277 293 299 300 304 303 309 313 310 314 322 316 307 303 294 291 287 290 295 303 318 336 335 336 334 327 326 319 314 313 318 322 323 321 323 320 317 321 328 324 319 315 294 218 179 155 140 137 146 155 160 165 156 131 115 105 120 137 143 133 122 124 122 127 125 121 125 127 124 125 122
109 43 28 23 28 17 324 309 299 291 286 292 313 301 294 308 306 300 300 307 304 305 309 315 318 316 311 305 306 303 300 289 294 298 302 311 331 342 337 329 320 317 310 308 317 326 321 320 318 320 321 323 321 319 315 307 307 313 306 214 158 147 151 145 137 140 144 142 137 123 120 123 138 154 141 136 137 138 142 139 138 137 136 133 130 126 133
110 73 350 300 312 327 305 278 260 284 292 297 282 277 286 281 278 287 292 298 304 308 309 308 311 309 306 308 306 305 302 305 305 305 318 330 338 342 339 326 313 306 303 305 317 327 327 328 323 321 322 321 325 320 312 296 294 302 304 190 161 156 156 154 142 139 133 124 109 101 115 139 151 144 145 134 127 134 136 136 131 129 127 128 128 133 141
155 183 196 197 180 221 254 274 254 273 284 280 279 281 281 297 308 313 307 306 308 316 321 321 314 310 308 314 314 315 316 323 331 336 338 339 337 335 332 327 315 308 305 308 321 342 333 328 323 318 320 323 324 321 315 302 283 269 272 208 160 150 143 142 143 136 130 125 125 132 138 137 137 141 130 132 142 142 137 137 137 134 128 127 131 133 133
147 183 174 194 206 211 197 210 242 263 288 301 308 307 321 330 339 331 332 341 340 325 316 311 311 305 307 308 313 319 330 326 327 332 337 335 335 332 333 331 328 328 331 336 347 341 325 319 311 310 320 325 319 319 317 312 286 256 261 191 175 154 153 148 147 143 130 125 125 126 120 126 136 130 141 146 144 139 135 136 136 137 135 131 130 126 127
118 117 109 92 134 158 185 224 226 244 284 298 315 343 343 333 340 337 333 324 315 311 313 314 317 319 315 323 325 331 325 331 333 338 341 344 340 336 344 347 346 340 338 334 345 335 327 319 320 327 331 320 320 316 310 309 284 266 249 133 141 142 159 151 127 113 120 127 125 123 118 114 109 106 114 111 118 126 130 130 133 135 133 133 135 129 125
157 142 139 135 142 135 99 56 15 17 31 16 0 343 340 339 332 318 309 305 308 313 318 317 318 318 313 310 324 341 350 348 347 350 353 354 352 355 358 353 358 350 340 333 338 335 328 322 332 338 339 324 326 314 309 316 307 266 240 135 148 161 152 133 125 121 112 107 110 114 114 109 91 81 77 79 108 115 108 99 88 87 110 124 123 121 122
104 113 128 130 126 99 74 51 38 41 22 11 351 332 330 327 321 317 316 314 319 315 310 305 303 310 323 350 9 11 8 6 8 8 5 4 358 2 9 7 3 352 351 345 331 332 327 342 347 345 340 336 329 323 320 320 313 337 117 97 155 152 136 125 121 118 117 118 120 120 121 118 114 109 102 93 97 109 115 112 106 107 101 113 121 122 121
107 109 106 107 93 87 80 53 42 37 31 16 341 338 332 327 322 324 325 331 327 329 328 335 347 6 15 14 22 25 25 25 21 17 12 6 1 14 13 3 354 345 331 328 333 333 344 353 350 345 348 346 346 335 335 345 98 77 53 70 91 129 130 125 122 119 116 120 121 120 112 105 102 101 97 95 98 96 92 97 112 115 118 128 120 118 118
118 122 131 122 107 99 84 67 45 34 17 16 355 344 338 331 338 346 357 0 2 3 13 13 20 24 30 37 39 39 28 27 24 24 14 6 9 16 10 10 1 342 353 356 352 344 355 2 1 355 358 359 2 354 360 25 36 42 44 54 60 71 89 103 111 112 110 106 105 104 104 106 108 109 111 110 105 97 100 100 96 103 109 102 100 103 106
133 130 126 113 111 104 97 73 55 34 27 17 359 356 351 350 356 14 14 8 3 11 14 22 42 43 42 43 45 37 33 31 31 27 14 20 28 20 18 8 348 349 358 4 358 357 359 3 11 9 3 12 11 29 22 36 43 49 56 54 59 72 80 79 79 83 91 95 98 99 104 108 104 102 96 85 80 94 106 103 98 91 86 89 92 96 102
136 122 114 110 112 109 100 86 75 52 38 16 354 1 359 0 11 17 13 10 12 20 22 25 51 58 51 48 48 45 40 30 26 23 28 35 31 10 21 9 347 353 11 7 357 357 357 6 16 28 28 28 30 40 45 46 45 55 68 70 72 74 81 80 79 77 79 82 84 89 90 90 93 93 91 100 109 107 98 93 92 98 104 105 96 87 92
135 123 119 118 116 112 101 80 71 57 43 20 7 10 13 17 21 23 23 26 28 24 30 30 33 42 44 43 45 48 39 24 24 18 23 21 30 40 40 356 350 2 14 8 3 4 9 11 27 37 46 48 46 45 45 47 53 59 65 72 82 85 86 89 89 88 88 90 91 96 99 102 97 93 90 88 81 76 77 80 94 114 127 131 136 141 140
126 119 122 121 121 120 110 92 80 58 49 31 26 28 28 28 26 31 33 40 46 45 41 34 43 46 45 46 47 40 25 22 24 16 28 11 19 16 13 11 3 7 16 18 15 21 20 25 30 40 46 51 51 52 54 55 55 57 64 70 75 82 91 99 105 110 111 110 108 105 101 99 97 95 93 87 91 110 126 136 132 125 125 130 136 142 145
129 131 129 128 130 126 121 126 121 71 45 48 46 41 33 32 28 29 33 41 52 43 41 46 51 54 48 45 48 40 26 18 29 16 24 12 20 11 348 2 10 15 21 28 23 26 31 37 44 44 46 51 58 58 60 63 65 66 67 70 72 74 74 76 80 82 88 92 94 98 100 102 105 111 115 119 133 144 146 146 145 144 144 150 156 161 151
122 125 130 133 128 132 143 128 96 88 89 74 54 46 39 35 33 26 26 42 49 39 37 41 50 41 28 14 9 18 31 26 14 9 44 135 314 295 324 8 17 23 28 30 31 30 40 51 52 50 48 47 52 60 61 64 68 73 75 76 80 82 84 84 80 79 83 87 90 91 93 94 91 95 103 115 131 134 136 141 143 155 168 162 147 128 116
124 117 119 125 125 125 119 110 105 87 72 64 56 36 22 34 38 39 24 38 55 46 45 43 41 30 29 27 25 21 22 20 10 5 7 360 359 357 360 16 28 30 31 34 34 33 40 48 51 51 51 54 55 60 59 62 63 69 71 77 78 84 85 89 92 96 97 95 94 95 90 80 81 90 98 100 107 121 125 121 114 114 114 108 102 115 116
128 126 130 132 131 127 108 97 87 86 83 86 88 54 27 43 52 52 52 56 53 49 48 41 32 19 10 13 15 21 12 19 40 7 357 2 9 16 13 24 33 39 36 31 34 42 46 48 48 51 56 58 57 58 57 63 68 70 73 73 75 77 80 83 86 87 87 90 96 99 101 101 98 100 107 112 118 120 126 126 127 119 104 97 100 108 114
123 126 129 125 128 129 124 119 113 104 108 105 83 56 31 58 59 56 60 60 57 51 42 28 19 8 2 3 24 16 9 18 74 26 332 11 19 18 11 18 29 32 35 37 36 30 47 53 51 49 51 56 60 62 62 62 65 69 69 72 70 69 72 75 78 79 84 83 88 87 92 89 98 102 103 100 100 98 97 89 85 97 106 102 84 69 69
123 120 126 139 144 142 135 122 123 144 158 126 115 84 56 73 55 33 54 81 95 86 54 32 21 11 4 7 13 15 13 8 4 6 15 23 22 23 20 23 28 28 29 30 30 28 33 44 52 53 53 50 51 55 63 68 73 74 81 79 79 73 77 82 81 84 89 91 88 89 87 88 96 97 98 97 89 85 84 87 89 91 90 86 84 85 85
137 139 155 164 154 144 148 150 158 159 159 156 162 158 80 76 80 61 108 108 78 70 49 36 29 13 5 6 12 14 4 358 360 17 24 23 27 23 20 18 16 19 24 27 28 25 23 29 39 48 52 52 54 57 60 65 67 66 69 73 78 85 83 81 82 81 76 80 82 76 81 81 75 78 72 82 89 89 84 86 82 84 86 96 97 99 93
137 136 143 145 139 125 127 134 132 129 141 121 119 103 103 103 85 75 60 66 72 66 55 62 31 353 12 7 7 2 355 5 11 9 21 26 24 21 13 16 15 10 14 14 16 30 28 24 36 44 50 54 55 55 56 58 60 64 64 66 67 66 69 80 82 77 74 78 80 83 78 82 95 95 93 91 91 91 89 87 88 87 91 93 94 93 96